Location: Krakow
(50.0212°N, 19.9423°E)
Time: 14:13:08
(UTC+02:00)

NOAA 18 - Pass Details

Date: 04 May 2025
Orbit: 837 x 857 km, 98.8° (Epoch: 14 May)

Event Time Altitude Azimuth Distance (km) Brightness Sun altitude
Exits shadow 23:15:46 33° 203° (SSW) 1,412 6.0 -21.4°
Maximum altitude 23:17:59 51° 260° (W) 1,066 5.7 -21.5°
Drops below altitude 10° 23:23:24 10° 336° (NNW) 2,501 8.8 -21.8°
Sets 23:25:51 0° 342° (NNW) 3,441 9.9 -21.9°
